Chievres, Belgium

8:41 PM CEST on May 25, 2017 (GMT +0200)
Chievres Air Base

Weather History for EBCV - February, 2013

Change the Weather History Date:

Tuesday, February 12, 2013

  Actual Average Record
Temperature  
Mean Temperature 29 °F -  
Max Temperature 32 °F 45 °F 55 °F (2008)
Min Temperature 26 °F 37 °F 12 °F (2012)
Degree Days  
Heating Degree Days 36    
Moisture  
Dew Point 25 °F    
Average Humidity 78    
Maximum Humidity 93    
Minimum Humidity 58    
Precipitation  
Precipitation 0.00 in - - ()
Sea Level Pressure  
Sea Level Pressure 29.90 in    
Wind  
Wind Speed 8 mph ()    
Max Wind Speed 13 mph    
Max Gust Speed -    
Visibility 4.2 miles    
Events Snow    
Averages and records for this station are not official NWS values.
T = Trace of Precipitation, MM = Missing Value Source: Averaged Metar Reports

Daily Weather History Graph

Daily Weather History Graph

Search for Another Location

Airport or City:

Trip Planner

Search our weather history database for the weather conditions in past years. The results will help you decide how hot, cold, wet, or windy it might be!

Date:

Astronomy

Feb. 12, 2013 Rise Set
Actual Time 8:01 AM CET 5:56 PM CET
Civil Twilight 7:27 AM CET 6:30 PM CET
Nautical Twilight 6:49 AM CET 7:09 PM CET
Astronomical Twilight 6:11 AM CET 7:47 PM CET
Moon 8:30 AM CET (2/12) 9:05 PM CET (2/12)
Length of Visible Light 11h 03m
Length of Day
9h 55m
Waxing Crescent, 6% of the Moon is Illuminated
Feb 12
Waxing Crescent
Feb 17
First Quarter
Feb 25
Full
Mar 4
Last Quarter
Mar 11
New

Hourly Weather History & Observations

Time (CET) Temp. Windchill Dew Point Humidity Pressure Visibility Wind Dir Wind Speed Gust Speed Precip Events Conditions
12:25 AM 32.0 °F 24.8 °F 30.2 °F 93% 29.68 in - ENE 8.1 mph - N/A   Mostly Cloudy
1:00 AM 32 °F - 30 °F 88% 29.72 in 3 mi NE 6.7 mph - -   Mist
1:25 AM 32.0 °F 24.8 °F 30.2 °F 93% 29.71 in - NE 8.1 mph - N/A   Mostly Cloudy
1:28 AM 32.0 °F 24.8 °F 30.2 °F 93% 29.71 in 2.5 mi NE 8.1 mph - N/A Snow Light Snow
1:34 AM 32.0 °F 24.8 °F 30.2 °F 93% 29.71 in 1.9 mi NE 8.1 mph - N/A Snow Light Snow
2:25 AM 32.0 °F 24.8 °F 30.2 °F 93% 29.71 in 1.3 mi NE 8.1 mph - N/A Snow Light Snow
3:21 AM 30.2 °F 21.3 °F 28.4 °F 93% 29.74 in - ENE 10.4 mph - N/A Snow Light Snow
3:27 AM 30.2 °F 21.3 °F 28.4 °F 93% 29.74 in 3.7 mi ENE 10.4 mph - N/A Snow Light Snow
3:33 AM 30.2 °F 21.3 °F 28.4 °F 93% 29.74 in 4.3 mi East 10.4 mph - N/A Snow Light Snow Grains
4:00 AM 31 °F - 28 °F 83% 29.77 in 5 mi ENE 11.2 mph - - Snow Snow
4:16 AM 32.0 °F 24.2 °F 26.6 °F 80% 29.74 in 5.6 mi NE 9.2 mph - N/A   Mostly Cloudy
4:25 AM 32.0 °F 24.2 °F 26.6 °F 80% 29.74 in 5.6 mi ENE 9.2 mph - N/A   Mostly Cloudy
5:25 AM 30.2 °F 20.2 °F 23.0 °F 75% 29.77 in 5.6 mi East 12.7 mph - N/A   Scattered Clouds
6:29 AM 28.4 °F 19.7 °F 23.0 °F 80% 29.80 in 4.3 mi ENE 9.2 mph - N/A   Clear
7:00 AM 27 °F - 23 °F 77% 29.84 in 4 mi NE 8.9 mph - -  
8:25 AM 26.6 °F 18.2 °F 21.2 °F 80% 29.86 in 3.7 mi NE 8.1 mph - N/A   Clear
9:25 AM 28.4 °F 19.7 °F 23.0 °F 80% 29.89 in 4.3 mi NE 9.2 mph - N/A   Clear
10:00 AM 28 °F - 22 °F 72% 29.92 in 4 mi NE 11.2 mph - -  
10:16 AM 28.4 °F 19.1 °F 23.0 °F 80% 29.89 in 5.0 mi ENE 10.4 mph - N/A   Clear
10:21 AM 30.2 °F 21.3 °F 23.0 °F 75% 29.89 in 4.3 mi ENE 10.4 mph - N/A   Clear
10:25 AM 30.2 °F 20.8 °F 23.0 °F 75% 29.89 in 4.3 mi ENE 11.5 mph - N/A   Clear
11:25 AM 30.2 °F 21.9 °F 23.0 °F 75% 29.92 in 5.0 mi ENE 9.2 mph - N/A   Clear
11:42 AM 30.2 °F 20.8 °F 23.0 °F 75% 29.95 in 5.0 mi ENE 11.5 mph - N/A   Scattered Clouds
11:51 AM 30.2 °F 21.3 °F 23.0 °F 75% 29.95 in 5.6 mi NE 10.4 mph - N/A   Mostly Cloudy
12:25 PM 30.2 °F 21.3 °F 23.0 °F 75% 29.95 in 5.6 mi ENE 10.4 mph - N/A   Mostly Cloudy
1:00 PM 31 °F - 22 °F 58% 29.98 in 6 mi ENE 11.2 mph - -   Mostly Cloudy
1:25 PM 30.2 °F 20.8 °F 21.2 °F 69% 29.95 in 5.6 mi NE 11.5 mph - N/A   Mostly Cloudy
2:25 PM 32.0 °F 23.6 °F 23.0 °F 69% 29.95 in 5.0 mi ENE 10.4 mph - N/A   Mostly Cloudy
3:25 PM 32.0 °F 23.0 °F 23.0 °F 69% 29.98 in 4.3 mi ENE 11.5 mph - N/A   Mostly Cloudy
4:00 PM 31 °F - 23 °F 61% 30.00 in 4 mi East 8.9 mph - -   Overcast
4:25 PM 30.2 °F 21.9 °F 23.0 °F 75% 29.98 in 4.3 mi ENE 9.2 mph - N/A   Mostly Cloudy
5:25 PM 30.2 °F 22.6 °F 23.0 °F 75% 30.01 in 4.3 mi East 8.1 mph - N/A   Mostly Cloudy
6:25 PM 30.2 °F 24.3 °F 23.0 °F 75% 30.01 in 4.3 mi ENE 5.8 mph - N/A   Mostly Cloudy
7:00 PM 31 °F - 22 °F 60% 30.06 in 4 mi ENE 4.5 mph - -   Mostly Cloudy
7:25 PM 32.0 °F 25.6 °F 21.2 °F 64% 30.04 in 4.3 mi NE 6.9 mph - N/A   Mostly Cloudy
8:25 PM 30.2 °F 23.4 °F 21.2 °F 69% 30.06 in 3.7 mi NE 6.9 mph - N/A   Mostly Cloudy
9:25 PM 30.2 °F 25.4 °F 23.0 °F 75% 30.06 in 3.7 mi ENE 4.6 mph - N/A   Mostly Cloudy
10:00 PM 30 °F - 22 °F 62% 30.12 in 4 mi 4.5 mph - -   Overcast
10:25 PM 30.2 °F - 23.0 °F 75% 30.09 in 3.1 mi Variable 2.3 mph - N/A   Mostly Cloudy
11:25 PM 30.2 °F - 24.8 °F 80% 30.09 in 3.1 mi Variable 2.3 mph - N/A   Mostly Cloudy
11:47 PM 30.2 °F - 24.8 °F 80% 30.12 in - Variable 2.3 mph - N/A   Mostly Cloudy
11:57 PM 30.2 °F - 24.8 °F 80% 30.12 in 3.1 mi Variable 2.3 mph - N/A   Mostly Cloudy